EN

Hourly Weather Trekusek

Today, 12 April, Monday

Time Temperature Precipitation Wind Pressure Humidity
00:00 +11°C° 0 mm 4 mps 748 mmHg 73%
01:00 +11°C° 0 mm 4 mps 748 mmHg 76%
02:00 +11°C° 0 mm 4 mps 748 mmHg 77%
03:00 +10°C° 0 mm 4 mps 748 mmHg 78%
04:00 +10°C° 0 mm 4 mps 748 mmHg 79%
05:00 +10°C° 0 mm 4 mps 748 mmHg 80%
06:00 +10°C° 0 mm 4 mps 748 mmHg 80%
07:00 +11°C° 0 mm 4 mps 748 mmHg 80%
08:00 +11°C° 0 mm 4 mps 748 mmHg 77%
09:00 +12°C° 0 mm 4 mps 748 mmHg 74%
10:00 +13°C° 0 mm 4 mps 748 mmHg 70%
11:00 +12°C° 0.2 mm 4 mps 748 mmHg 70%
12:00 +12°C° 0.2 mm 4 mps 748 mmHg 70%
13:00 +12°C° 0.2 mm 4 mps 748 mmHg 70%
14:00 +10°C° 0.2 mm 4 mps 749 mmHg 77%
15:00 +6°C° 0.2 mm 5 mps 749 mmHg 83%
16:00 +3°C° 0.2 mm 6 mps 750 mmHg 89%
17:00 +2°C° 0.4 mm 5 mps 751 mmHg 90%
18:00 +1°C° 0.4 mm 5 mps 751 mmHg 90%
19:00 +1°C° 0.4 mm 5 mps 752 mmHg 90%
20:00 +1°C° 0.1 mm 5 mps 752 mmHg 92%
21:00 0°C° 0.1 mm 5 mps 753 mmHg 93%
22:00 0°C° 0.1 mm 4 mps 753 mmHg 94%
23:00 0°C° 0 mm 4 mps 753 mmHg 92%

Tomorrow, 13 April, Tuesday

Time Temperature Precipitation Wind Pressure Humidity
00:00 +1°C° 0 mm 3 mps 753 mmHg 90%
01:00 +2°C° 0 mm 3 mps 754 mmHg 88%
02:00 +1°C° 0 mm 3 mps 754 mmHg 88%
03:00 +1°C° 0 mm 3 mps 754 mmHg 88%
04:00 +2°C° 0 mm 2 mps 754 mmHg 88%
05:00 +1°C° 0 mm 3 mps 754 mmHg 84%
06:00 +2°C° 0 mm 3 mps 754 mmHg 80%
07:00 +2°C° 0 mm 3 mps 755 mmHg 76%
08:00 +3°C° 0 mm 3 mps 755 mmHg 69%
09:00 +4°C° 0 mm 3 mps 755 mmHg 61%
10:00 +5°C° 0 mm 3 mps 755 mmHg 54%
11:00 +7°C° 0 mm 3 mps 755 mmHg 51%
12:00 +7°C° 0 mm 3 mps 755 mmHg 47%
13:00 +8°C° 0 mm 3 mps 755 mmHg 44%
14:00 +7°C° 0 mm 3 mps 755 mmHg 44%
15:00 +7°C° 0 mm 3 mps 754 mmHg 45%
16:00 +7°C° 0 mm 3 mps 754 mmHg 45%
17:00 +5°C° 0 mm 3 mps 754 mmHg 49%
18:00 +5°C° 0 mm 2 mps 754 mmHg 52%
19:00 +4°C° 0 mm 2 mps 755 mmHg 56%
20:00 +4°C° 0 mm 2 mps 754 mmHg 61%
21:00 +4°C° 0 mm 2 mps 754 mmHg 65%
22:00 +3°C° 0 mm 2 mps 754 mmHg 70%
23:00 +4°C° 0 mm 1 mps 754 mmHg 72%

Day after tomorrow, 14 April, Wednesday

Time Temperature Precipitation Wind Pressure Humidity
00:00 +4°C° 0 mm 1 mps 754 mmHg 74%
01:00 +4°C° 0 mm 1 mps 754 mmHg 76%
02:00 +4°C° 0 mm 1 mps 753 mmHg 77%
03:00 +2°C° 0 mm 2 mps 753 mmHg 77%
04:00 +2°C° 0 mm 2 mps 753 mmHg 78%
05:00 +3°C° 0 mm 2 mps 753 mmHg 75%
06:00 +3°C° 0 mm 2 mps 753 mmHg 72%
07:00 +3°C° 0 mm 3 mps 753 mmHg 69%
08:00 +4°C° 0 mm 3 mps 753 mmHg 65%
09:00 +5°C° 0 mm 3 mps 753 mmHg 61%
10:00 +7°C° 0 mm 3 mps 753 mmHg 57%
11:00 +6°C° 0 mm 4 mps 753 mmHg 54%
12:00 +7°C° 0 mm 4 mps 752 mmHg 51%
13:00 +7°C° 0 mm 4 mps 752 mmHg 48%
14:00 +7°C° 0 mm 4 mps 752 mmHg 51%
15:00 +6°C° 0 mm 4 mps 752 mmHg 53%
16:00 +6°C° 0 mm 4 mps 752 mmHg 56%
17:00 +5°C° 0 mm 4 mps 752 mmHg 61%
18:00 +5°C° 0 mm 4 mps 752 mmHg 66%
19:00 +4°C° 0 mm 4 mps 752 mmHg 70%
20:00 +3°C° 0 mm 4 mps 752 mmHg 74%
21:00 +3°C° 0 mm 4 mps 752 mmHg 77%
22:00 +1°C° 0 mm 4 mps 752 mmHg 81%
23:00 +1°C° 0 mm 4 mps 752 mmHg 82%

15 April, Thursday

Time Temperature Precipitation Wind Pressure Humidity
00:00 +1°C° 0 mm 4 mps 752 mmHg 83%
01:00 +1°C° 0 mm 4 mps 752 mmHg 84%
02:00 +1°C° 0.1 mm 4 mps 751 mmHg 87%
03:00 +1°C° 0.1 mm 4 mps 751 mmHg 90%
04:00 0°C° 0.1 mm 4 mps 751 mmHg 93%
05:00 0°C° 0.4 mm 4 mps 751 mmHg 94%
06:00 0°C° 0.4 mm 5 mps 751 mmHg 95%
07:00 0°C° 0.4 mm 5 mps 751 mmHg 96%
08:00 0°C° 0.6 mm 5 mps 751 mmHg 96%
09:00 0°C° 0.6 mm 5 mps 751 mmHg 96%
10:00 0°C° 0.6 mm 5 mps 751 mmHg 96%
11:00 0°C° 0.4 mm 5 mps 750 mmHg 96%
12:00 +1°C° 0.4 mm 5 mps 750 mmHg 95%
13:00 +1°C° 0.4 mm 5 mps 750 mmHg 94%
14:00 +3°C° 0.5 mm 4 mps 750 mmHg 95%
15:00 +3°C° 0.5 mm 4 mps 750 mmHg 95%
16:00 +3°C° 0.5 mm 4 mps 750 mmHg 95%
17:00 +4°C° 0.7 mm 4 mps 750 mmHg 95%
18:00 +3°C° 0.7 mm 5 mps 750 mmHg 95%
19:00 +3°C° 0.7 mm 5 mps 750 mmHg 95%
20:00 +3°C° 0.4 mm 5 mps 750 mmHg 95%
21:00 +4°C° 0.4 mm 4 mps 750 mmHg 94%
22:00 +4°C° 0.4 mm 4 mps 751 mmHg 93%
23:00 +4°C° 0.1 mm 4 mps 751 mmHg 93%

16 April, Friday

Time Temperature Precipitation Wind Pressure Humidity
00:00 +4°C° 0.1 mm 4 mps 751 mmHg 92%
01:00 +4°C° 0.1 mm 4 mps 751 mmHg 92%
02:00 +4°C° 0 mm 4 mps 751 mmHg 91%
03:00 +4°C° 0 mm 4 mps 751 mmHg 91%
04:00 +4°C° 0 mm 4 mps 751 mmHg 90%
05:00 +3°C° 0 mm 4 mps 751 mmHg 90%
06:00 +3°C° 0 mm 4 mps 751 mmHg 90%
07:00 +3°C° 0 mm 4 mps 751 mmHg 89%
08:00 +3°C° 0.2 mm 4 mps 752 mmHg 90%
09:00 +3°C° 0.2 mm 4 mps 752 mmHg 91%
10:00 +3°C° 0.2 mm 4 mps 752 mmHg 92%
11:00 +3°C° 0.2 mm 4 mps 752 mmHg 92%
12:00 +3°C° 0.2 mm 4 mps 753 mmHg 92%
13:00 +3°C° 0.2 mm 4 mps 753 mmHg 92%
14:00 +3°C° 0 mm 3 mps 753 mmHg 92%
15:00 +3°C° 0 mm 3 mps 753 mmHg 92%
16:00 +4°C° 0 mm 3 mps 753 mmHg 92%
17:00 +4°C° 0 mm 3 mps 753 mmHg 93%
18:00 +4°C° 0 mm 3 mps 754 mmHg 93%
19:00 +5°C° 0 mm 2 mps 754 mmHg 94%
20:00 +4°C° 0 mm 3 mps 754 mmHg 93%
21:00 +5°C° 0 mm 3 mps 754 mmHg 92%
22:00 +5°C° 0 mm 3 mps 754 mmHg 92%
23:00 +5°C° 0 mm 3 mps 754 mmHg 92%

17 April, Saturday

Time Temperature Precipitation Wind Pressure Humidity
00:00 +5°C° 0 mm 3 mps 754 mmHg 92%
01:00 +4°C° 0 mm 3 mps 754 mmHg 92%
02:00 +4°C° 0 mm 3 mps 755 mmHg 92%
03:00 +4°C° 0 mm 3 mps 755 mmHg 92%
04:00 +4°C° 0 mm 4 mps 755 mmHg 92%
05:00 +5°C° 0 mm 4 mps 755 mmHg 89%
06:00 +5°C° 0 mm 4 mps 755 mmHg 86%
07:00 +6°C° 0 mm 4 mps 755 mmHg 83%
08:00 +7°C° 0 mm 4 mps 755 mmHg 79%
09:00 +8°C° 0 mm 5 mps 756 mmHg 75%
10:00 +10°C° 0 mm 5 mps 756 mmHg 71%
11:00 +9°C° 0 mm 5 mps 756 mmHg 71%
12:00 +9°C° 0 mm 5 mps 756 mmHg 71%
13:00 +9°C° 0 mm 5 mps 756 mmHg 71%
14:00 +11°C° 0 mm 4 mps 756 mmHg 70%
15:00 +11°C° 0 mm 4 mps 756 mmHg 69%
16:00 +12°C° 0 mm 4 mps 756 mmHg 68%
17:00 +12°C° 0 mm 4 mps 756 mmHg 69%
18:00 +11°C° 0 mm 4 mps 756 mmHg 70%
19:00 +11°C° 0 mm 3 mps 756 mmHg 71%
20:00 +10°C° 0 mm 4 mps 756 mmHg 72%
21:00 +10°C° 0 mm 4 mps 756 mmHg 73%
22:00 +10°C° 0 mm 4 mps 756 mmHg 73%
23:00 +10°C° 0 mm 4 mps 757 mmHg 74%
Show more

We Need Your Consent

Meteoprog and our Service Providers may store and access personal data such as cookies, device identifiers or other similar technologies on your device and process such data to personalise content and ads, as well as provide social media features and to analyse the traffic.

  • Store and/or access information on your device

    Cookies, device identifiers or other information can be stored or accessed on your device for the purposes indicated above.

  • Personalised ads and content, ad and content measurement, audience insights, and products development

    Ads and content can be personalised based on a profile. More data can be added to better personalise ads and content. Ad and content performance can be measured. Insights about the audience who saw the ads and content can be derived. Such data can be used to develop or improve user’s experience, systems and software.

By clicking ‘I Agree’ you will allow the use of indicated cookies, device identifiers, web beacons or other similar technologies. Your settings can be changed in the browser on your device.

For certain purposes, legitimate interests may be relied on, rather than consent. You can read more about this in our Privacy and Cookie Policy.